Tracking 29932 objects as of 4-Dec-2024
HD Live streaming from Space Station
objects crossing your sky now

STARLINK-11097

Track STARLINK-11097 now!
10-day predictions
STARLINK-11097 is classified as:


NORAD ID: 59759
Int'l Code: 2024-091G
Perigee: 366.3 km
Apogee: 367.4 km
Inclination: 53.2 °
Period: 91.7 minutes
Semi major axis: 6737 km
RCS: Unknown
Launch date: May 14, 2024
Source: United States (US)
Launch site: AIR FORCE WESTERN TEST RANGE (AFWTR)
Your satellite tracking list
Your tracking list is empty




NASA's NSSDC Master Catalog

Two Line Element Set (TLE):
1 59759U 24091G   24336.68745899  .00002458  00000-0  25132-4 0  9991
2 59759  53.1589 328.6968 0000755 135.4486 224.6593 15.69715396 32792
Source of the keplerian elements: AFSPC